| time (UTC) | temp F | wind direction | speed MPH | gust MPH | rain 1hr in | rain 24hr in | rain mn in | humidity % | barometer mb |
| 20260502163041 | 81 | 146 | 1.0 | 4.0 | 0.00 | 0.00 | 0.00 | 65 | 1000.1 |
| 20260502161528 | 81 | 112 | 2.0 | 4.0 | 0.00 | 0.00 | 0.00 | 65 | 997.3 |
| 20260502151619 | 79 | 156 | 1.0 | 3.0 | 0.00 | 0.00 | 0.00 | 69 | 1003.9 |
| 20260502123027 | 73 | 23 | 0.0 | 0.0 | 0.00 | 0.00 | 0.00 | 71 | 1000.3 |
| 20260502121526 | 74 | 338 | 0.0 | 1.0 | 0.00 | 0.00 | 0.00 | 70 | 1001.9 |
| 20260502114524 | 74 | 338 | 0.0 | 0.0 | 0.00 | 0.00 | 0.00 | 70 | 998.4 |
| 20260502113026 | 74 | 337 | 0.0 | 0.0 | 0.00 | 0.00 | 0.00 | 69 | 998.8 |
| 20260502111520 | 75 | 337 | 0.0 | 2.0 | 0.00 | 0.00 | 0.00 | 68 | 992.3 |
| 20260502110020 | 75 | 337 | 0.0 | 0.0 | 0.00 | 0.00 | 0.00 | 67 | 993.0 |
| 20260502104523 | 75 | 338 | 0.0 | 0.0 | 0.00 | 0.00 | 0.00 | 68 | 973.3 |
| 20260502103018 | 75 | 338 | 0.0 | 2.0 | 0.00 | 0.00 | 0.00 | 68 | 973.3 |
| 20260502101539 | 74 | 338 | 0.0 | 0.0 | 0.00 | 0.00 | 0.00 | 68 | 974.3 |
| 20260502091512 | 74 | 350 | 0.0 | 3.0 | 0.00 | 0.00 | 0.00 | 65 | 986.7 |
| 20260502070120 | 74 | 353 | 0.0 | 2.0 | 0.00 | 0.00 | 0.00 | 64 | 956.7 |
| 20260502064557 | 75 | 353 | 1.0 | 3.0 | 0.00 | 0.00 | 0.00 | 63 | 960.0 |
| 20260502063058 | 76 | 353 | 0.0 | 3.0 | 0.00 | 0.00 | 0.00 | 66 | 941.1 |
| 20260502061559 | 75 | 354 | 2.0 | 5.0 | 0.00 | 0.00 | 0.00 | 66 | 911.7 |
| 20260502060051 | 75 | 21 | 0.0 | 3.0 | 0.00 | 0.00 | 0.00 | 65 | 911.7 |
| 20260502054555 | 75 | 42 | 0.0 | 3.0 | 0.00 | 0.00 | 0.00 | 67 | 915.5 |
| 20260502053048 | 76 | 50 | 0.0 | 0.0 | 0.00 | 0.00 | 0.00 | 68 | 912.2 |
| 20260502051604 | 76 | 51 | 0.0 | 4.0 | 0.00 | 0.00 | 0.00 | 69 | 912.2 |
| 20260502050045 | 76 | 66 | 1.0 | 3.0 | 0.00 | 0.00 | 0.00 | 68 | 849.3 |
| 20260502044546 | 76 | 69 | 1.0 | 4.0 | 0.00 | 0.00 | 0.00 | 65 | 849.3 |
| 20260502043047 | 77 | 69 | 0.0 | 0.0 | 0.00 | 0.00 | 0.00 | 71 | 849.3 |
| 20260502041543 | 77 | 68 | 0.0 | 2.0 | 0.00 | 0.00 | 0.00 | 69 | 866.2 |
| 20260502040046 | 76 | 68 | 0.0 | 0.0 | 0.00 | 0.00 | 0.00 | 59 | 866.2 |
| 20260502034536 | 76 | 69 | 0.0 | 3.0 | 0.00 | 0.00 | 0.00 | 58 | 822.0 |
| 20260502033034 | 76 | 68 | 1.0 | 3.0 | 0.00 | 0.00 | 0.00 | 58 | 832.7 |
| 20260502031532 | 77 | 68 | 0.0 | 2.0 | 0.00 | 0.00 | 0.00 | 65 | 832.7 |
| 20260502030028 | 78 | 68 | 0.0 | 0.0 | 0.00 | 0.00 | 0.00 | 70 | 802.1 |
| 20260502024533 | 78 | 69 | 0.0 | 0.0 | 0.00 | 0.00 | 0.00 | 70 | 802.1 |
| 20260502023026 | 78 | 69 | 0.0 | 0.0 | 0.00 | 0.00 | 0.00 | 69 | 810.3 |
| 20260502021526 | 78 | 69 | 0.0 | 4.0 | 0.00 | 0.00 | 0.00 | 69 | 802.3 |
| 20260502020107 | 79 | 45 | 2.0 | 6.0 | 0.00 | 0.00 | 0.00 | 68 | 802.3 |
| 20260502014555 | 79 | 57 | 1.0 | 5.0 | 0.00 | 0.00 | 0.00 | 66 | 792.1 |
| 20260502013103 | 80 | 73 | 2.0 | 5.0 | 0.00 | 0.00 | 0.00 | 62 | 792.1 |
| 20260502011556 | 81 | 87 | 2.0 | 4.0 | 0.00 | 0.00 | 0.00 | 54 | 792.1 |
| 20260502010051 | 82 | 52 | 2.0 | 4.0 | 0.00 | 0.00 | 0.00 | 53 | 792.1 |
| 20260502004608 | 83 | 57 | 2.0 | 4.0 | 0.00 | 0.00 | 0.00 | 52 | 792.1 |
| 20260502003053 | 83 | 56 | 2.0 | 5.0 | 0.00 | 0.00 | 0.00 | 53 | 815.0 |
| 20260502001604 | 83 | 88 | 2.0 | 5.0 | 0.00 | 0.00 | 0.00 | 51 | 815.0 |
| 20260502000052 | 84 | 76 | 2.0 | 4.0 | 0.00 | 0.00 | 0.00 | 52 | 815.0 |
| 20260501234555 | 85 | 71 | 2.0 | 4.0 | 0.00 | 0.00 | 0.00 | 50 | 815.0 |
| 20260501233054 | 85 | 83 | 2.0 | 6.0 | 0.00 | 0.00 | 0.00 | 49 | 815.0 |
| 20260501231545 | 85 | 83 | 2.0 | 4.0 | 0.00 | 0.00 | 0.00 | 48 | 815.0 |
| 20260501230044 | 85 | 89 | 2.0 | 4.0 | 0.00 | 0.00 | 0.00 | 49 | 873.5 |
| 20260501224545 | 86 | 69 | 2.0 | 6.0 | 0.00 | 0.00 | 0.00 | 46 | 873.5 |
| 20260501223042 | 86 | 115 | 1.0 | 4.0 | 0.00 | 0.00 | 0.00 | 45 | 873.5 |
| 20260501221542 | 86 | 133 | 1.0 | 3.0 | 0.00 | 0.00 | 0.00 | 44 | 873.5 |
| 20260501220110 | 86 | 158 | 1.0 | 4.0 | 0.00 | 0.00 | 0.00 | 52 | 873.5 |
| 20260501214541 | 86 | 118 | 1.0 | 4.0 | 0.00 | 0.00 | 0.00 | 53 | 839.6 |
| 20260501213038 | 86 | 141 | 2.0 | 4.0 | 0.00 | 0.00 | 0.00 | 48 | 848.6 |
| 20260501211537 | 85 | 129 | 2.0 | 5.0 | 0.00 | 0.00 | 0.00 | 58 | 869.2 |
| 20260501210052 | 86 | 146 | 1.0 | 4.0 | 0.00 | 0.00 | 0.00 | 59 | 869.2 |
| 20260501204542 | 86 | 202 | 2.0 | 5.0 | 0.00 | 0.00 | 0.00 | 57 | 869.2 |
| 20260501203037 | 86 | 172 | 2.0 | 5.0 | 0.00 | 0.00 | 0.00 | 57 | 869.2 |
| 20260501201540 | 85 | 216 | 3.0 | 5.0 | 0.00 | 0.00 | 0.00 | 62 | 869.2 |
| 20260501200033 | 85 | 185 | 2.0 | 5.0 | 0.00 | 0.00 | 0.00 | 63 | 880.1 |
| 20260501194537 | 84 | 141 | 2.0 | 5.0 | 0.00 | 0.00 | 0.00 | 63 | 880.1 |
| 20260501193040 | 85 | 172 | 3.0 | 5.0 | 0.00 | 0.00 | 0.00 | 63 | 921.8 |
| 20260501191530 | 85 | 197 | 1.0 | 5.0 | 0.00 | 0.00 | 0.00 | 65 | 921.8 |
| 20260501190034 | 85 | 202 | 2.0 | 5.0 | 0.00 | 0.00 | 0.00 | 62 | 931.2 |
| 20260501184529 | 86 | 212 | 2.0 | 5.0 | 0.00 | 0.00 | 0.00 | 63 | 931.2 |
| 20260501183026 | 86 | 225 | 2.0 | 5.0 | 0.00 | 0.00 | 0.00 | 63 | 931.2 |
| 20260501181545 | 86 | 238 | 1.0 | 4.0 | 0.00 | 0.00 | 0.00 | 63 | 949.0 |
| 20260501180023 | 86 | 200 | 2.0 | 5.0 | 0.00 | 0.00 | 0.00 | 62 | 949.0 |